Hauptseite
METAR-TAF:

METAR-TAF

Flughäfen :

Bohrplattform

Euro, Niederlande

Breite: 51-59-52N, Länge: 3-16-30E, Höhe: 18 m

Beobachtung

Neuester Wetterbericht von vor 34 Minuten, um 19:25 UTC
Wind 12 kt aus West/Südwest
Temperatur 16°C
Luftfeuchtigkeit 88%
Luftdruck 1026 hPa
Sichtweite 10 km oder mehr

METAR: EHSA 211925Z AUTO 25012KT 9999 ///////// 16/14 Q1026 W15/H7

Zeit: 21:59 (19:59 UTC)


TAF: fehlend

Wetterbeobachtungen und Prognosen von mehr als 4000 Flughäfen (METAR und TAF Bericht).

Die verfügbaren Stationen werden durch gelbe und rote Markierungen auf der Karte dargestellt.

Führen Sie die Maus auf sie, um den Namen der Station zu sehen.

Darauf klicken, um die Beobachtung von Wetterbeobachtungen und Prognosen zu sehen.

Um die Karte zu ändern : klicken Sie auf den grünen Tasten mit einem schwarzen Kreuz Zum Vergrößern, auf den grünen Button mit einem Gedankenstrich zu verkleinern, oder auf die grünen Pfeile für benachbarte Karten.


METAR-TAF: